����������;��������(kWh)
2015-08-24 00:00;78,5
2015-08-24 00:15;66,3
2015-08-24 00:30;68,2
2015-08-24 00:45;66,35
2015-08-24 01:00;64,3
2015-08-24 01:15;66,25
2015-08-24 01:30;66,7
2015-08-24 01:45;67,4
2015-08-24 02:00;63,5
2015-08-24 02:15;68,05
2015-08-24 02:30;66,6
2015-08-24 02:45;68,05
2015-08-24 03:00;65,7
2015-08-24 03:15;65,85
2015-08-24 03:30;66,95
2015-08-24 03:45;67,55
2015-08-24 04:00;66,85
2015-08-24 04:15;64,7
2015-08-24 04:30;66,4
2015-08-24 04:45;67
2015-08-24 05:00;65,8
2015-08-24 05:15;66,1
2015-08-24 05:30;65,25
2015-08-24 05:45;65,25
2015-08-24 06:00;69,1
2015-08-24 06:15;68,15
2015-08-24 06:30;67,25
2015-08-24 06:45;68,9
2015-08-24 07:00;67,85
2015-08-24 07:15;69,85
2015-08-24 07:30;65,75
2015-08-24 07:45;94,85
2015-08-24 08:00;104,95
2015-08-24 08:15;96,85
2015-08-24 08:30;115,65
2015-08-24 08:45;111,75
2015-08-24 09:00;123
2015-08-24 09:15;129,1
2015-08-24 09:30;141,3
2015-08-24 09:45;146,5
2015-08-24 10:00;155,6
2015-08-24 10:15;160,05
2015-08-24 10:30;183,3
2015-08-24 10:45;237,15
2015-08-24 11:00;231,5
2015-08-24 11:15;231,85
2015-08-24 11:30;197,15
2015-08-24 11:45;211,1
2015-08-24 12:00;214
2015-08-24 12:15;225,3
2015-08-24 12:30;208,5
2015-08-24 12:45;204,2
2015-08-24 13:00;209,6
2015-08-24 13:15;213,75
2015-08-24 13:30;201,8
2015-08-24 13:45;199,85
2015-08-24 14:00;213,7
2015-08-24 14:15;255,4
2015-08-24 14:30;248,15
2015-08-24 14:45;219,65
2015-08-24 15:00;196,9
2015-08-24 15:15;182,55
2015-08-24 15:30;167,25
2015-08-24 15:45;158,7
2015-08-24 16:00;154,8
2015-08-24 16:15;151,5
2015-08-24 16:30;144,3
2015-08-24 16:45;140,2
2015-08-24 17:00;143,5
2015-08-24 17:15;138,15
2015-08-24 17:30;143,35
2015-08-24 17:45;142,2
2015-08-24 18:00;142
2015-08-24 18:15;140,05
2015-08-24 18:30;133,1
2015-08-24 18:45;125,05
2015-08-24 19:00;127,95
2015-08-24 19:15;126,6
2015-08-24 19:30;123,35
2015-08-24 19:45;112,5
2015-08-24 20:00;111,15
2015-08-24 20:15;103,6
2015-08-24 20:30;102,4
2015-08-24 20:45;85,2
2015-08-24 21:00;85,55
2015-08-24 21:15;84,05
2015-08-24 21:30;80,85
2015-08-24 21:45;80,45
2015-08-24 22:00;80,05
2015-08-24 22:15;78,4
2015-08-24 22:30;75,95
2015-08-24 22:45;75,8
2015-08-24 23:00;75,55
2015-08-24 23:15;76,7
2015-08-24 23:30;75,1
2015-08-24 23:45;78,85
2015-08-25 00:00;85
2015-08-25 00:15;71,65
2015-08-25 00:30;70,9
2015-08-25 00:45;67,95
2015-08-25 01:00;69,25
2015-08-25 01:15;71,2
2015-08-25 01:30;70,4
2015-08-25 01:45;70,3
2015-08-25 02:00;68,75
2015-08-25 02:15;70,3
2015-08-25 02:30;70,5
2015-08-25 02:45;69,95
2015-08-25 03:00;67,8
2015-08-25 03:15;70,25
2015-08-25 03:30;69,6
2015-08-25 03:45;70,1
2015-08-25 04:00;68,9
2015-08-25 04:15;69,45
2015-08-25 04:30;69,05
2015-08-25 04:45;70,05
2015-08-25 05:00;65,7
2015-08-25 05:15;67,9
2015-08-25 05:30;69,3
2015-08-25 05:45;66,65
2015-08-25 06:00;66,35
2015-08-25 06:15;70,35
2015-08-25 06:30;73,8
2015-08-25 06:45;73,65
2015-08-25 07:00;72,85
2015-08-25 07:15;71
2015-08-25 07:30;72,3
2015-08-25 07:45;103,65
2015-08-25 08:00;110,7
2015-08-25 08:15;108,75
2015-08-25 08:30;102,65
2015-08-25 08:45;108,55
2015-08-25 09:00;119,7
2015-08-25 09:15;124,45
2015-08-25 09:30;132,35
2015-08-25 09:45;142,45
2015-08-25 10:00;149,2
2015-08-25 10:15;161,6
2015-08-25 10:30;212,75
2015-08-25 10:45;219,75
2015-08-25 11:00;214,9
2015-08-25 11:15;209,75
2015-08-25 11:30;197,55
2015-08-25 11:45;201,55
2015-08-25 12:00;197,45
2015-08-25 12:15;192
2015-08-25 12:30;190,5
2015-08-25 12:45;192,05
2015-08-25 13:00;194,75
2015-08-25 13:15;191,2
2015-08-25 13:30;223
2015-08-25 13:45;245,7
2015-08-25 14:00;232,3
2015-08-25 14:15;206,5
2015-08-25 14:30;196,55
2015-08-25 14:45;181,85
2015-08-25 15:00;178,4
2015-08-25 15:15;166,45
2015-08-25 15:30;161,7
2015-08-25 15:45;206,15
2015-08-25 16:00;201,2
2015-08-25 16:15;157,95
2015-08-25 16:30;158,65
2015-08-25 16:45;165
2015-08-25 17:00;162,8
2015-08-25 17:15;147,9
2015-08-25 17:30;143,85
2015-08-25 17:45;143,85
2015-08-25 18:00;136,65
2015-08-25 18:15;134
2015-08-25 18:30;129,55
2015-08-25 18:45;126,9
2015-08-25 19:00;131,75
2015-08-25 19:15;136,35
2015-08-25 19:30;125,9
2015-08-25 19:45;128,1
2015-08-25 20:00;125,95
2015-08-25 20:15;110,75
2015-08-25 20:30;101,05
2015-08-25 20:45;101,05
2015-08-25 21:00;89,75
2015-08-25 21:15;87,1
2015-08-25 21:30;88,15
2015-08-25 21:45;81,25
2015-08-25 22:00;89,15
2015-08-25 22:15;80,75
2015-08-25 22:30;77,05
2015-08-25 22:45;89,45
2015-08-25 23:00;78,75
2015-08-25 23:15;83,6
2015-08-25 23:30;75,95
2015-08-25 23:45;86,5
2015-08-26 00:00;93,35
2015-08-26 00:15;83,2
2015-08-26 00:30;79,45
2015-08-26 00:45;74
2015-08-26 01:00;76,35
2015-08-26 01:15;75,85
2015-08-26 01:30;74,8
2015-08-26 01:45;74,65
2015-08-26 02:00;75,2
2015-08-26 02:15;75,55
2015-08-26 02:30;76
2015-08-26 02:45;72,9
2015-08-26 03:00;72,45
2015-08-26 03:15;73,5
2015-08-26 03:30;73,05
2015-08-26 03:45;72,55
2015-08-26 04:00;71,45
2015-08-26 04:15;72,85
2015-08-26 04:30;74,4
2015-08-26 04:45;72,35
2015-08-26 05:00;72,35
2015-08-26 05:15;71,9
2015-08-26 05:30;73,05
2015-08-26 05:45;70,8
2015-08-26 06:00;72,8
2015-08-26 06:15;75,15
2015-08-26 06:30;78,2
2015-08-26 06:45;79,15
2015-08-26 07:00;74,65
2015-08-26 07:15;78,45
2015-08-26 07:30;80,2
2015-08-26 07:45;107,25
2015-08-26 08:00;169,65
2015-08-26 08:15;163,45
2015-08-26 08:30;143
2015-08-26 08:45;124,1
2015-08-26 09:00;157,35
2015-08-26 09:15;146,35
2015-08-26 09:30;162,1
2015-08-26 09:45;168,9
2015-08-26 10:00;166,2
2015-08-26 10:15;184,25
2015-08-26 10:30;187,8
2015-08-26 10:45;198,45
2015-08-26 11:00;196,2
2015-08-26 11:15;205,8
2015-08-26 11:30;221,9
2015-08-26 11:45;229,65
2015-08-26 12:00;236,3
2015-08-26 12:15;240
2015-08-26 12:30;240,7
2015-08-26 12:45;236,25
2015-08-26 13:00;233,15
2015-08-26 13:15;227,85
2015-08-26 13:30;225,95
2015-08-26 13:45;225,55
2015-08-26 14:00;224,6
2015-08-26 14:15;224,7
2015-08-26 14:30;221,5
2015-08-26 14:45;220,4
2015-08-26 15:00;196,9
2015-08-26 15:15;190,3
2015-08-26 15:30;185,75
2015-08-26 15:45;179,35
2015-08-26 16:00;174
2015-08-26 16:15;174,85
2015-08-26 16:30;167,35
2015-08-26 16:45;163,7
2015-08-26 17:00;159,9
2015-08-26 17:15;154,8
2015-08-26 17:30;152,25
2015-08-26 17:45;145,15
2015-08-26 18:00;143,65
2015-08-26 18:15;137,9
2015-08-26 18:30;139,2
2015-08-26 18:45;132,8
2015-08-26 19:00;131,75
2015-08-26 19:15;129,9
2015-08-26 19:30;125,3
2015-08-26 19:45;123,3
2015-08-26 20:00;123,75
2015-08-26 20:15;122,95
2015-08-26 20:30;123,6
2015-08-26 20:45;117,25
2015-08-26 21:00;114,2
2015-08-26 21:15;111,3
2015-08-26 21:30;98,4
2015-08-26 21:45;94,7
2015-08-26 22:00;92,9
2015-08-26 22:15;91,85
2015-08-26 22:30;90,95
2015-08-26 22:45;90,85
2015-08-26 23:00;86,7
2015-08-26 23:15;82,1
2015-08-26 23:30;80,5
2015-08-26 23:45;85,25
2015-08-27 00:00;86,15
2015-08-27 00:15;76,6
2015-08-27 00:30;78,7
2015-08-27 00:45;79,55
2015-08-27 01:00;75,05
2015-08-27 01:15;76,6
2015-08-27 01:30;76,4
2015-08-27 01:45;75,4
2015-08-27 02:00;74,8
2015-08-27 02:15;74,65
2015-08-27 02:30;74,8
2015-08-27 02:45;73,95
2015-08-27 03:00;74,1
2015-08-27 03:15;72,2
2015-08-27 03:30;74,1
2015-08-27 03:45;74,8
2015-08-27 04:00;74,1
2015-08-27 04:15;70,85
2015-08-27 04:30;72,95
2015-08-27 04:45;74,2
2015-08-27 05:00;74,6
2015-08-27 05:15;70,7
2015-08-27 05:30;74,75
2015-08-27 05:45;82,5
2015-08-27 06:00;91,4
2015-08-27 06:15;89,05
2015-08-27 06:30;98
2015-08-27 06:45;90,4
2015-08-27 07:00;87,05
2015-08-27 07:15;86,65
2015-08-27 07:30;90,9
2015-08-27 07:45;121
2015-08-27 08:00;178,8
2015-08-27 08:15;175,4
2015-08-27 08:30;162,65
2015-08-27 08:45;143,75
2015-08-27 09:00;154,95
2015-08-27 09:15;165,1
2015-08-27 09:30;181,2
2015-08-27 09:45;175,5
2015-08-27 10:00;186,95
2015-08-27 10:15;199,05
2015-08-27 10:30;194,75
2015-08-27 10:45;193
2015-08-27 11:00;206,75
2015-08-27 11:15;214,1
2015-08-27 11:30;210,65
2015-08-27 11:45;217,5
2015-08-27 12:00;222,35
2015-08-27 12:15;226,7
2015-08-27 12:30;220,55
2015-08-27 12:45;241,8
2015-08-27 13:00;247,5
2015-08-27 13:15;236,4
2015-08-27 13:30;229,05
2015-08-27 13:45;233,3
2015-08-27 14:00;232,15
2015-08-27 14:15;218,9
2015-08-27 14:30;214
2015-08-27 14:45;228,6
2015-08-27 15:00;221,05
2015-08-27 15:15;203,6
2015-08-27 15:30;209,45
2015-08-27 15:45;209,1
2015-08-27 16:00;195,9
2015-08-27 16:15;191,5
2015-08-27 16:30;190,3
2015-08-27 16:45;186,25
2015-08-27 17:00;183
2015-08-27 17:15;175
2015-08-27 17:30;172,9
2015-08-27 17:45;166,35
2015-08-27 18:00;170,1
2015-08-27 18:15;167,1
2015-08-27 18:30;162,8
2015-08-27 18:45;155,4
2015-08-27 19:00;143,05
2015-08-27 19:15;142,7
2015-08-27 19:30;140,25
2015-08-27 19:45;137,45
2015-08-27 20:00;134,1
2015-08-27 20:15;117,6
2015-08-27 20:30;110
2015-08-27 20:45;103,9
2015-08-27 21:00;100,3
2015-08-27 21:15;89
2015-08-27 21:30;83,25
2015-08-27 21:45;83,5
2015-08-27 22:00;82,5
2015-08-27 22:15;80,2
2015-08-27 22:30;79,5
2015-08-27 22:45;78,85
2015-08-27 23:00;77,85
2015-08-27 23:15;80
2015-08-27 23:30;79,2
2015-08-27 23:45;88,15
2015-08-28 00:00;93,85
2015-08-28 00:15;82
2015-08-28 00:30;75,7
2015-08-28 00:45;75,3
2015-08-28 01:00;74,9
2015-08-28 01:15;73,75
2015-08-28 01:30;74,1
2015-08-28 01:45;73,45
2015-08-28 02:00;73,7
2015-08-28 02:15;71,7
2015-08-28 02:30;75,05
2015-08-28 02:45;74,3
2015-08-28 03:00;74,45
2015-08-28 03:15;72,6
2015-08-28 03:30;74,9
2015-08-28 03:45;73,75
2015-08-28 04:00;74,65
2015-08-28 04:15;72,1
2015-08-28 04:30;74,05
2015-08-28 04:45;73,55
2015-08-28 05:00;73,65
2015-08-28 05:15;71,9
2015-08-28 05:30;74,55
2015-08-28 05:45;73,35
2015-08-28 06:00;74,25
2015-08-28 06:15;82,4
2015-08-28 06:30;91,25
2015-08-28 06:45;90,65
2015-08-28 07:00;86,25
2015-08-28 07:15;88,95
2015-08-28 07:30;86,8
2015-08-28 07:45;118,9
2015-08-28 08:00;177,95
2015-08-28 08:15;171,55
2015-08-28 08:30;160,8
2015-08-28 08:45;133,45
2015-08-28 09:00;162,95
2015-08-28 09:15;173,85
2015-08-28 09:30;185,55
2015-08-28 09:45;192,3
2015-08-28 10:00;192,7
2015-08-28 10:15;200,65
2015-08-28 10:30;210,7
2015-08-28 10:45;222,5
2015-08-28 11:00;213,45
2015-08-28 11:15;224,4
2015-08-28 11:30;221,2
2015-08-28 11:45;214,85
2015-08-28 12:00;214,45
2015-08-28 12:15;214,3
2015-08-28 12:30;221,5
2015-08-28 12:45;226,6
2015-08-28 13:00;215,8
2015-08-28 13:15;220,5
2015-08-28 13:30;224,3
2015-08-28 13:45;219,9
2015-08-28 14:00;214,9
2015-08-28 14:15;214,25
2015-08-28 14:30;212,45
2015-08-28 14:45;211,55
2015-08-28 15:00;201,15
2015-08-28 15:15;190,6
2015-08-28 15:30;238,9
2015-08-28 15:45;256,2
2015-08-28 16:00;243,55
2015-08-28 16:15;224,55
2015-08-28 16:30;198,6
2015-08-28 16:45;190,9
2015-08-28 17:00;186,7
2015-08-28 17:15;184,6
2015-08-28 17:30;187,6
2015-08-28 17:45;191,2
2015-08-28 18:00;184,35
2015-08-28 18:15;184,25
2015-08-28 18:30;170,65
2015-08-28 18:45;168,15
2015-08-28 19:00;154,2
2015-08-28 19:15;152,65
2015-08-28 19:30;154,05
2015-08-28 19:45;146,85
2015-08-28 20:00;138,75
2015-08-28 20:15;133,05
2015-08-28 20:30;134,6
2015-08-28 20:45;120,65
2015-08-28 21:00;116,4
2015-08-28 21:15;109,4
2015-08-28 21:30;91,4
2015-08-28 21:45;86,95
2015-08-28 22:00;84,25
2015-08-28 22:15;85,7
2015-08-28 22:30;84,65
2015-08-28 22:45;82,65
2015-08-28 23:00;80,25
2015-08-28 23:15;83,4
2015-08-28 23:30;83,3
2015-08-28 23:45;86
2015-08-29 00:00;90,85
2015-08-29 00:15;79,05
2015-08-29 00:30;77,85
2015-08-29 00:45;77,45
2015-08-29 01:00;77
2015-08-29 01:15;76,6
2015-08-29 01:30;76,45
2015-08-29 01:45;75,5
2015-08-29 02:00;74,45
2015-08-29 02:15;71,6
2015-08-29 02:30;73,35
2015-08-29 02:45;73,95
2015-08-29 03:00;73,9
2015-08-29 03:15;71,8
2015-08-29 03:30;72,05
2015-08-29 03:45;73,2
2015-08-29 04:00;72,3
2015-08-29 04:15;74,3
2015-08-29 04:30;78,3
2015-08-29 04:45;79,45
2015-08-29 05:00;79,15
2015-08-29 05:15;72,8
2015-08-29 05:30;70,9
2015-08-29 05:45;69,85
2015-08-29 06:00;73,65
2015-08-29 06:15;73,25
2015-08-29 06:30;78,95
2015-08-29 06:45;79,4
2015-08-29 07:00;73,65
2015-08-29 07:15;74,85
2015-08-29 07:30;75,4
2015-08-29 07:45;95,5
2015-08-29 08:00;91,45
2015-08-29 08:15;83,15
2015-08-29 08:30;79,75
2015-08-29 08:45;79,95
2015-08-29 09:00;82,75
2015-08-29 09:15;82,5
2015-08-29 09:30;84,65
2015-08-29 09:45;84,45
2015-08-29 10:00;83,7
2015-08-29 10:15;85,35
2015-08-29 10:30;84,45
2015-08-29 10:45;105,65
2015-08-29 11:00;154,35
2015-08-29 11:15;152,05
2015-08-29 11:30;132,95
2015-08-29 11:45;137,95
2015-08-29 12:00;129,7
2015-08-29 12:15;133,1
2015-08-29 12:30;132,25
2015-08-29 12:45;136,55
2015-08-29 13:00;137,6
2015-08-29 13:15;135,2
2015-08-29 13:30;133,9
2015-08-29 13:45;133
2015-08-29 14:00;130,3
2015-08-29 14:15;129,8
2015-08-29 14:30;132,3
2015-08-29 14:45;136
2015-08-29 15:00;132,7
2015-08-29 15:15;133,5
2015-08-29 15:30;137,7
2015-08-29 15:45;141,4
2015-08-29 16:00;141
2015-08-29 16:15;122,6
2015-08-29 16:30;124,75
2015-08-29 16:45;123,4
2015-08-29 17:00;126,85
2015-08-29 17:15;120,5
2015-08-29 17:30;120,75
2015-08-29 17:45;117,35
2015-08-29 18:00;116
2015-08-29 18:15;115,95
2015-08-29 18:30;116,55
2015-08-29 18:45;111,9
2015-08-29 19:00;111,2
2015-08-29 19:15;112,6
2015-08-29 19:30;110,1
2015-08-29 19:45;104
2015-08-29 20:00;110
2015-08-29 20:15;117,85
2015-08-29 20:30;117,95
2015-08-29 20:45;108,7
2015-08-29 21:00;109,55
2015-08-29 21:15;113,3
2015-08-29 21:30;114,25
2015-08-29 21:45;104,8
2015-08-29 22:00;99,9
2015-08-29 22:15;99,45
2015-08-29 22:30;102,1
2015-08-29 22:45;102,75
2015-08-29 23:00;102,2
2015-08-29 23:15;102,05
2015-08-29 23:30;100,3
2015-08-29 23:45;103,85
2015-08-30 00:00;109,95
2015-08-30 00:15;97,2
2015-08-30 00:30;93,85
2015-08-30 00:45;95
2015-08-30 01:00;99,05
2015-08-30 01:15;97,9
2015-08-30 01:30;97,85
2015-08-30 01:45;95,9
2015-08-30 02:00;96,65
2015-08-30 02:15;102,55
2015-08-30 02:30;103,95
2015-08-30 02:45;104,2
2015-08-30 03:00;99,35
2015-08-30 03:15;98,55
2015-08-30 03:30;97,25
2015-08-30 03:45;98,8
2015-08-30 04:00;97,15
2015-08-30 04:15;99,1
2015-08-30 04:30;98,3
2015-08-30 04:45;99,8
2015-08-30 05:00;100,25
2015-08-30 05:15;98,7
2015-08-30 05:30;98,7
2015-08-30 05:45;96
2015-08-30 06:00;97,9
2015-08-30 06:15;102,05
2015-08-30 06:30;103,8
2015-08-30 06:45;105,7
2015-08-30 07:00;103,35
2015-08-30 07:15;103,7
2015-08-30 07:30;106,6
2015-08-30 07:45;105,55
2015-08-30 08:00;103,6
2015-08-30 08:15;104,35
2015-08-30 08:30;105,7
2015-08-30 08:45;106,05
2015-08-30 09:00;101,95
2015-08-30 09:15;102,45
2015-08-30 09:30;101,7
2015-08-30 09:45;101,7
2015-08-30 10:00;103,05
2015-08-30 10:15;103,5
2015-08-30 10:30;107,4
2015-08-30 10:45;104,7
2015-08-30 11:00;107,75
2015-08-30 11:15;107,75
2015-08-30 11:30;104,5
2015-08-30 11:45;101
2015-08-30 12:00;101,5
2015-08-30 12:15;101,7
2015-08-30 12:30;104,1
2015-08-30 12:45;103,5
2015-08-30 13:00;103,45
2015-08-30 13:15;104,05
2015-08-30 13:30;103
2015-08-30 13:45;104,5
2015-08-30 14:00;106,5
2015-08-30 14:15;105,8
2015-08-30 14:30;106,65
2015-08-30 14:45;108,9
2015-08-30 15:00;107,45
2015-08-30 15:15;111,7
2015-08-30 15:30;105,9
2015-08-30 15:45;107,5
2015-08-30 16:00;107
2015-08-30 16:15;105,1
2015-08-30 16:30;105,05
2015-08-30 16:45;107,6
2015-08-30 17:00;108,35
2015-08-30 17:15;113,95
2015-08-30 17:30;110,25
2015-08-30 17:45;113,55
2015-08-30 18:00;109,2
2015-08-30 18:15;107,5
2015-08-30 18:30;109,9
2015-08-30 18:45;101,85
2015-08-30 19:00;101,9
2015-08-30 19:15;103,35
2015-08-30 19:30;105,85
2015-08-30 19:45;102
2015-08-30 20:00;104,6
2015-08-30 20:15;109,85
2015-08-30 20:30;110,2
2015-08-30 20:45;107,8
2015-08-30 21:00;108,65
2015-08-30 21:15;107,55
2015-08-30 21:30;104,4
2015-08-30 21:45;100,35
2015-08-30 22:00;99,65
2015-08-30 22:15;101,25
2015-08-30 22:30;100,3
2015-08-30 22:45;102,7
2015-08-30 23:00;100,9
2015-08-30 23:15;105,65
2015-08-30 23:30;101,65
2015-08-30 23:45;105

